Regional Weather Roundup
Issued by NWS

Home | Current Version | Previous Version | Graphics & Text | Print | Product List | Glossary On
Versions: 1 2 3 4 5 6 7 8 9 10 11 12 13 14 15 16 17 18 19 20 21 22 23 24 25 26 27 28 29 30 31 32 33 34 35 36 37 38 39 40 41 42 43 44 45 46 47 48 49 50
000
ASUS43 KOAX 011710
RWRNE

WEATHER ROUNDUP FOR NEBRASKA
NATIONAL WEATHER SERVICE OMAHA NE
1200 PM CDT SAT AUG 01 2015

NOTES: SATELLITE DATA IS BEING USED TO AUGMENT CLOUD COVER ABOVE
       12000 FEET.
       "FAIR" INDICATES FEW OR NO CLOUDS BELOW 12,000 FEET WITH NO
       SIGNIFICANT WEATHER AND/OR OBSTRUCTIONS TO VISIBILITY.

  * THESE STATIONS DO NOT REPORT WEATHER SUCH AS RAIN...SNOW OR FOG.

NEZ001>004-019>022-054>056-011800-
NEBRASKA PANHANDLE

CITY           SKY/WX    TMP DP  RH WIND       PRES   REMARKS
SCOTTSBLUFF    SUNNY     84  57  39 W7        30.08F
ALLIANCE       SUNNY     87  57  35 W12       30.08S
CHADRON        SUNNY     84  56  38 S3        30.04S
KIMBALL        SUNNY     86  50  28 S12G17    30.14R
SIDNEY         SUNNY     88  54  31 S17       30.12S
$$

NEZ057>060-069>072-079>082-011800-
SOUTHWEST NEBRASKA

CITY           SKY/WX    TMP DP  RH WIND       PRES   REMARKS
NORTH PLATTE   SUNNY     78  60  53 E21       30.12S
IMPERIAL       SUNNY     85  63  47 SE16      30.10F
LEXINGTON      SUNNY     81  58  44 SE13G20   30.12S
MCCOOK         SUNNY     82  62  50 E15       30.11F
OGALLALA       SUNNY     82  65  57 SE13G20   30.10S
$$

NEZ005>010-023>029-035>040-094-011800-
NORTH CENTRAL NEBRASKA

CITY           SKY/WX    TMP DP  RH WIND       PRES   REMARKS
VALENTINE      LGT RAIN  62  59  90 S25G32    30.09F
AINSWORTH      LGT RAIN  61  59  93 S3        30.17F
BROKEN BOW     SUNNY     83  57  41 SE9       30.14R
O`NEILL        RAIN      66  62  87 SW17      30.12F
ORD            PTSUNNY   74  63  68 NW13      30.12R
THEDFORD       LGT RAIN  74  60  63 E17       30.19R
$$

NEZ041-046>049-061>064-073>077-083>087-011800-
SOUTH CENTRAL NEBRASKA

CITY           SKY/WX    TMP DP  RH WIND       PRES   REMARKS
GRAND ISLAND   MOSUNNY   82  64  54 S7        30.07F
AURORA         PTSUNNY   75  64  68 S6        30.06F
HASTINGS       MOSUNNY   78  60  53 E7        30.09S
HEBRON         MOSUNNY   81  59  47 NE5       30.07F
HOLDREGE       SUNNY     80  57  46 E15       30.11S
KEARNEY *      SUNNY     81  61  50 E10       30.11S
YORK           CLOUDY    73  66  78 SW9       30.04S
$$

NEZ011>018-030>034-042>045-011800-
NORTHEAST NEBRASKA

CITY           SKY/WX    TMP DP  RH WIND       PRES   REMARKS
NORFOLK        CLOUDY    75  62  64 W6        30.06R
ALBION         LGT RAIN  69  60  72 NW9       30.08R
BLAIR          CLOUDY    75  66  71 NE7       30.02F
COLUMBUS *     CLOUDY    73  61  64 NW3       30.04R
FREMONT        CLOUDY    79  65  62 NE7       30.02F
TEKAMAH        PTSUNNY   81  64  56 CALM      30.02F
WAYNE          CLOUDY    79  64  60 W13       30.04S
$$

NEZ050>053-065>068-078-088>093-011800-
SOUTHEAST NEBRASKA

CITY           SKY/WX    TMP DP  RH WIND       PRES   REMARKS
LINCOLN        CLOUDY    78  63  59 S8        30.03S
OMAHA EPPLEY   CLOUDY    78  65  63 N5        30.03R
BEATRICE       PTSUNNY   77  63  61 SE5       30.07F
FALLS CITY     MOSUNNY   83  73  72 NE5       30.04F
NEBRASKA CITY  PTSUNNY   78  61  55 CALM      30.03F
PLATTSMOUTH    CLOUDY    75  65  70 NE3       30.04R
$$

NEZ044-045-051>053-067-011800-
OMAHA AREA

CITY           SKY/WX    TMP DP  RH WIND       PRES   REMARKS
OMAHA EPPLEY   CLOUDY    78  65  63 N5        30.03R
BLAIR          CLOUDY    75  66  71 NE7       30.02F
FREMONT        CLOUDY    79  65  62 NE7       30.02F
MILLARD        CLOUDY    80  65  61 E6        30.01F
OFFUTT AFB     CLOUDY    75  68  78 E9        30.01F
PLATTSMOUTH    CLOUDY    75  65  70 NE3       30.04R
WAHOO          FAIR      78  68  72 NE5       30.01S
$$



USA.gov is the U.S. government's official web portal to all federal, state and local government web resources and services.